Osceola Municipal, IA

7:23 AM CST on December 12, 2017 (GMT -0600)
Osceola Municipal

Weather History for KI75 - May, 2014

Change the Weather History Date:

Sunday, May 4, 2014

  Actual Average (KCNC) Record (KCNC)
Temperature  
Mean Temperature 58 °F -  
Max Temperature 68 °F 69 °F 90 °F (1952)
Min Temperature 47 °F 44 °F 27 °F (1954)
Degree Days  
Heating Degree Days 8    
Growing Degree Days 8 (Base 50)    
Moisture  
Dew Point 42 °F    
Average Humidity 60    
Maximum Humidity 86    
Minimum Humidity 38    
Precipitation  
Precipitation 0.00 in - - ()
Sea Level Pressure  
Sea Level Pressure 29.93 in    
Wind  
Wind Speed 9 mph (ENE)    
Max Wind Speed 22 mph    
Max Gust Speed 28 mph    
Visibility 10 miles    
Events      
Averages and records for this station are not official NWS values.
T = Trace of Precipitation, MM = Missing Value Source: NWS Daily Summary

Daily Weather History Graph

Daily Weather History Graph

Search for Another Location

Airport or City:

Trip Planner

Search our weather history database for the weather conditions in past years. The results will help you decide how hot, cold, wet, or windy it might be!

Date:

Astronomy

May. 04, 2014 Rise Set
Actual Time 6:08 AM CDT 8:14 PM CDT
Civil Twilight 5:38 AM CDT 8:45 PM CDT
Nautical Twilight 5:01 AM CDT 9:22 PM CDT
Astronomical Twilight 4:21 AM CDT 10:02 PM CDT
Moon 10:33 AM CDT (5/4) 12:20 AM CDT (5/4)
Length of Visible Light 15h 06m
Length of Day
14h 05m
Waxing Crescent, 28% of the Moon is Illuminated
May 4
Waxing Crescent
May 6
First Quarter
May 14
Full
May 21
Last Quarter
May 28
New

Hourly Weather History & Observations

Time (CDT) Temp. Dew Point Humidity Pressure Visibility Wind Dir Wind Speed Gust Speed Precip Events Conditions
12:15 AM 52.3 °F 44.2 °F 74% 29.95 in 10.0 mi NNE 3.5 mph - N/A   Clear
12:35 AM 51.6 °F 44.6 °F 77% 29.95 in 10.0 mi NNE 3.5 mph - N/A   Clear
12:55 AM 53.6 °F 44.8 °F 72% 29.95 in 10.0 mi NE 3.5 mph - N/A   Clear
1:15 AM 48.4 °F 43.0 °F 82% 29.95 in 10.0 mi ENE 3.5 mph - N/A   Clear
1:35 AM 50.2 °F 44.2 °F 80% 29.94 in 10.0 mi ENE 5.8 mph - N/A   Clear
1:55 AM 49.8 °F 44.1 °F 81% 29.94 in 10.0 mi NE 4.6 mph - N/A   Clear
2:15 AM 50.4 °F 44.4 °F 80% 29.94 in 10.0 mi NE 4.6 mph - N/A   Clear
2:35 AM 48.6 °F 43.3 °F 82% 29.95 in 10.0 mi NE 3.5 mph - N/A   Clear
2:55 AM 50.0 °F 43.9 °F 79% 29.95 in 10.0 mi NNE 3.5 mph - N/A   Clear
3:15 AM 48.7 °F 43.5 °F 82% 29.94 in 10.0 mi NE 4.6 mph - N/A   Clear
3:35 AM 47.8 °F 43.3 °F 84% 29.95 in 10.0 mi North 4.6 mph - N/A   Clear
3:55 AM 48.4 °F 43.5 °F 83% 29.96 in 10.0 mi NNE 5.8 mph - N/A   Clear
4:15 AM 47.8 °F 43.7 °F 86% 29.97 in 10.0 mi NNE 5.8 mph - N/A   Clear
4:35 AM 48.2 °F 44.1 °F 86% 29.97 in 10.0 mi NNE 6.9 mph - N/A   Clear
4:55 AM 48.7 °F 44.6 °F 86% 29.96 in 10.0 mi ENE 6.9 mph - N/A   Clear
5:15 AM 49.3 °F 44.6 °F 84% 29.98 in 10.0 mi ENE 5.8 mph - N/A   Clear
5:35 AM 49.1 °F 44.1 °F 83% 29.97 in 10.0 mi ENE 6.9 mph - N/A   Clear
5:55 AM 49.5 °F 43.2 °F 79% 29.98 in 10.0 mi ENE 6.9 mph - N/A   Clear
6:15 AM 48.2 °F 43.5 °F 84% 29.98 in 10.0 mi NE 8.1 mph - N/A   Clear
6:35 AM 48.7 °F 43.0 °F 80% 29.99 in 10.0 mi NE 11.5 mph - N/A   Clear
6:55 AM 49.1 °F 42.4 °F 78% 30.00 in 10.0 mi NE 11.5 mph - N/A   Clear
7:15 AM 50.0 °F 41.5 °F 73% 30.01 in 10.0 mi NE 11.5 mph - N/A   Clear
7:35 AM 50.2 °F 40.5 °F 69% 29.99 in 10.0 mi ENE 13.8 mph 18.4 mph N/A   Clear
7:55 AM 51.3 °F 39.9 °F 65% 30.00 in 10.0 mi NE 13.8 mph - N/A   Clear
8:15 AM 51.1 °F 38.7 °F 63% 30.00 in 10.0 mi ENE 16.1 mph 19.6 mph N/A   Clear
8:35 AM 52.0 °F 40.1 °F 64% 29.99 in 10.0 mi ENE 10.4 mph 18.4 mph N/A   Clear
8:55 AM 52.7 °F 39.9 °F 62% 30.01 in 10.0 mi NE 16.1 mph 21.9 mph N/A   Clear
9:15 AM 54.0 °F 40.6 °F 61% 30.02 in 10.0 mi NE 16.1 mph - N/A   Clear
9:35 AM 54.9 °F 40.8 °F 59% 30.03 in 10.0 mi NE 17.3 mph - N/A   Clear
9:55 AM 55.4 °F 39.7 °F 56% 30.03 in 10.0 mi NE 17.3 mph - N/A   Clear
10:15 AM 55.8 °F 39.7 °F 55% 29.97 in 10.0 mi East 20.7 mph 26.5 mph N/A   Clear
10:35 AM 57.6 °F 40.3 °F 53% 30.01 in 10.0 mi NE 20.7 mph 25.3 mph N/A   Clear
10:55 AM 57.9 °F 40.6 °F 53% 30.00 in 10.0 mi NE 20.7 mph 24.2 mph N/A   Clear
11:15 AM 59.0 °F 40.8 °F 51% 30.01 in 10.0 mi NE 19.6 mph 26.5 mph N/A   Clear
11:35 AM 59.0 °F 40.6 °F 51% 30.00 in 10.0 mi NE 21.9 mph 27.6 mph N/A   Clear
11:55 AM 60.3 °F 40.6 °F 48% 29.99 in 10.0 mi ENE 18.4 mph 24.2 mph N/A   Clear
12:15 PM 61.2 °F 41.4 °F 48% 29.98 in 10.0 mi NE 21.9 mph 26.5 mph N/A   Clear
12:35 PM 60.8 °F 40.6 °F 47% 29.97 in 10.0 mi ENE 21.9 mph 27.6 mph N/A   Clear
12:55 PM 61.7 °F 41.2 °F 47% 29.96 in 10.0 mi ENE 19.6 mph 27.6 mph N/A   Clear
1:15 PM 62.2 °F 41.0 °F 46% 29.95 in 10.0 mi ENE 16.1 mph 26.5 mph N/A   Clear
1:35 PM 63.7 °F 42.3 °F 46% 29.95 in 10.0 mi East 12.7 mph 23.0 mph N/A   Clear
1:55 PM 63.9 °F 41.5 °F 44% 29.94 in 10.0 mi East 17.3 mph 24.2 mph N/A   Clear
2:15 PM 65.1 °F 42.3 °F 43% 29.94 in 10.0 mi East 16.1 mph 20.7 mph N/A   Clear
2:35 PM 65.7 °F 41.7 °F 42% 29.93 in 10.0 mi East 17.3 mph 23.0 mph N/A   Clear
2:55 PM 65.7 °F 41.9 °F 42% 29.93 in 10.0 mi East 13.8 mph 23.0 mph N/A   Clear
3:15 PM 66.9 °F 42.4 °F 41% 29.92 in 7.0 mi ENE 12.7 mph 19.6 mph N/A   Clear
3:35 PM 66.7 °F 42.3 °F 41% 29.92 in 5.0 mi East 15.0 mph - N/A   Haze
3:55 PM 66.7 °F 41.7 °F 40% 29.91 in 10.0 mi East 17.3 mph 23.0 mph N/A   Clear
4:15 PM 65.8 °F 42.3 °F 42% 29.90 in 7.0 mi East 16.1 mph 19.6 mph N/A   Clear
4:35 PM 66.6 °F 42.3 °F 41% 29.89 in 10.0 mi East 13.8 mph 17.3 mph N/A   Clear
4:55 PM 66.2 °F 41.7 °F 41% 29.87 in 7.0 mi East 16.1 mph 23.0 mph N/A   Clear
5:15 PM 68.0 °F 41.5 °F 38% 29.86 in 7.0 mi East 18.4 mph 25.3 mph N/A   Clear
5:35 PM 67.1 °F 41.4 °F 39% 29.88 in 7.0 mi East 13.8 mph - N/A   Clear
5:55 PM 66.7 °F 42.1 °F 41% 29.88 in 7.0 mi East 12.7 mph 16.1 mph N/A   Clear
6:15 PM 66.4 °F 41.9 °F 41% 29.88 in 7.0 mi East 9.2 mph - N/A   Clear
6:35 PM 66.4 °F 43.0 °F 43% 29.86 in 7.0 mi East 13.8 mph - N/A   Clear
6:55 PM 66.4 °F 42.1 °F 41% 29.87 in 7.0 mi ENE 11.5 mph 17.3 mph N/A   Clear
7:15 PM 64.4 °F 41.5 °F 43% 29.86 in 10.0 mi East 11.5 mph 18.4 mph N/A   Clear
7:35 PM 63.9 °F 42.4 °F 46% 29.86 in 10.0 mi East 10.4 mph - N/A   Clear
7:55 PM 63.0 °F 42.4 °F 47% 29.86 in 10.0 mi East 9.2 mph - N/A   Clear
8:15 PM 61.9 °F 43.3 °F 51% 29.86 in 10.0 mi East 6.9 mph - N/A   Clear
8:35 PM 61.3 °F 42.8 °F 51% 29.85 in 10.0 mi East 9.2 mph - N/A   Clear
8:55 PM 59.4 °F 44.2 °F 57% 29.85 in 10.0 mi ENE 9.2 mph - N/A   Clear
9:15 PM 59.2 °F 43.7 °F 57% 29.85 in 10.0 mi ENE 10.4 mph - N/A   Clear
9:35 PM 59.0 °F 42.8 °F 55% 29.86 in 10.0 mi ENE 11.5 mph - N/A   Clear
9:55 PM 59.0 °F 42.6 °F 55% 29.85 in 10.0 mi East 13.8 mph - N/A   Clear
10:15 PM 58.1 °F 42.8 °F 57% 29.86 in 10.0 mi East 9.2 mph - N/A   Clear
10:35 PM 57.4 °F 42.8 °F 58% 29.86 in 10.0 mi ENE 9.2 mph - N/A   Clear
10:55 PM 56.3 °F 42.1 °F 59% 29.85 in 10.0 mi ENE 11.5 mph - N/A   Clear
11:15 PM 56.3 °F 41.0 °F 57% 29.85 in 10.0 mi ENE 10.4 mph - N/A   Clear
11:35 PM 55.4 °F 41.0 °F 58% 29.84 in 10.0 mi East 9.2 mph - N/A   Clear
11:55 PM 55.0 °F 40.6 °F 58% 29.84 in 10.0 mi East 8.1 mph - N/A   Clear